TimeEST,TemperatureF,Dew PointF,Humidity,Sea Level PressureIn,VisibilityMPH,Wind Direction,Wind SpeedMPH,Gust SpeedMPH,PrecipitationIn,Events,Conditions,WindDirDegrees,DateUTC
12:24 AM,37.4,33.8,87,29.68,6.0,NNW,5.8,-,0.00,Rain,Light Rain,340,2012-12-18 05:24:00
12:53 AM,37.0,32.0,82,29.69,6.0,NNW,4.6,-,0.00,,Haze,340,2012-12-18 05:53:00
1:53 AM,37.0,32.0,82,29.71,7.0,NW,5.8,-,N/A,,Overcast,310,2012-12-18 06:53:00
2:32 AM,35.6,30.2,81,29.69,7.0,NW,6.9,-,N/A,,Overcast,320,2012-12-18 07:32:00
2:53 AM,35.1,30.9,85,29.72,6.0,NW,5.8,-,N/A,,Overcast,320,2012-12-18 07:53:00
3:53 AM,35.1,30.9,85,29.73,5.0,WNW,5.8,-,N/A,,Overcast,300,2012-12-18 08:53:00
4:53 AM,32.0,28.0,85,29.73,6.0,WNW,5.8,-,N/A,,Clear,290,2012-12-18 09:53:00
5:53 AM,30.9,27.0,85,29.75,6.0,West,3.5,-,N/A,,Clear,270,2012-12-18 10:53:00
7:53 AM,30.9,28.0,89,29.79,5.0,SW,3.5,-,N/A,,Overcast,230,2012-12-18 12:53:00
8:53 AM,32.0,28.9,88,29.80,4.0,SSW,4.6,-,N/A,,Overcast,210,2012-12-18 13:53:00
9:53 AM,34.0,30.0,85,29.82,4.0,SSW,4.6,-,N/A,,Overcast,210,2012-12-18 14:53:00
10:53 AM,36.0,32.0,86,29.82,4.0,SW,5.8,-,N/A,,Overcast,220,2012-12-18 15:53:00
11:53 AM,37.9,30.0,73,29.80,5.0,SSW,8.1,-,N/A,,Haze,210,2012-12-18 16:53:00
12:53 PM,37.0,30.0,76,29.79,4.0,SSW,12.7,-,N/A,,Haze,200,2012-12-18 17:53:00
1:53 PM,37.0,30.0,76,29.76,5.0,South,9.2,-,N/A,,Haze,190,2012-12-18 18:53:00
2:12 PM,37.4,30.2,75,29.72,5.0,SSE,9.2,-,N/A,,Haze,150,2012-12-18 19:12:00
2:53 PM,39.0,30.9,73,29.73,5.0,SSE,12.7,-,N/A,,Haze,160,2012-12-18 19:53:00
3:53 PM,37.9,30.0,73,29.70,7.0,SE,12.7,20.7,N/A,,Scattered Clouds,140,2012-12-18 20:53:00
4:53 PM,37.9,30.9,76,29.69,7.0,SSE,6.9,-,N/A,,Overcast,150,2012-12-18 21:53:00
5:53 PM,39.0,32.0,76,29.70,8.0,South,8.1,-,N/A,,Overcast,170,2012-12-18 22:53:00
6:53 PM,39.0,33.1,79,29.71,8.0,SSE,10.4,-,N/A,,Overcast,150,2012-12-18 23:53:00
7:40 PM,39.2,33.8,81,29.68,8.0,South,12.7,-,0.00,Rain,Light Rain,170,2012-12-19 00:40:00
7:53 PM,39.0,33.1,79,29.70,7.0,SSE,10.4,-,0.00,,Overcast,160,2012-12-19 00:53:00
8:07 PM,39.2,33.8,81,29.68,6.0,South,9.2,-,0.00,Rain,Light Rain,170,2012-12-19 01:07:00
8:53 PM,39.0,34.0,82,29.70,7.0,South,9.2,-,0.00,,Overcast,170,2012-12-19 01:53:00
9:53 PM,39.0,34.0,82,29.69,7.0,South,11.5,-,N/A,,Overcast,180,2012-12-19 02:53:00
10:19 PM,39.2,33.8,81,29.67,6.0,SSW,6.9,-,N/A,,Haze,200,2012-12-19 03:19:00
10:53 PM,39.0,35.1,86,29.70,6.0,Calm,Calm,-,N/A,,Overcast,0,2012-12-19 03:53:00
11:32 PM,37.4,35.6,93,29.69,5.0,Calm,Calm,-,N/A,,Overcast,0,2012-12-19 04:32:00
11:53 PM,39.0,35.1,86,29.72,6.0,Calm,Calm,-,N/A,,Overcast,0,2012-12-19 04:53:00